Location: Gniazdowice
(50.2124°N, 20.2673°E)
Time: 01:42:04
(UTC+00:00)

Lacrosse 5 rocket - Pass Details

Date: 23 May 2024
Orbit: 445 x 572 km, 57.0° (Epoch: 18 June)

Event Time Altitude Azimuth Distance (km) Brightness Sun altitude
Rises 01:22:12 0° 297° (WNW) 2,720 4.7 -10.2°
Reaches altitude 10° 01:24:47 10° 283° (WNW) 1,800 3.7 -9.9°
Maximum altitude 01:28:01 23° 230° (SW) 1,147 2.3 -9.6°
Drops below altitude 10° 01:31:08 10° 177° (S) 1,728 3.4 -9.3°
Sets 01:33:34 0° 163° (SSE) 2,582 4.4 -9.0°
